EW5059 Weather Reports


Display with metric or nautical units.
time (UTC)temp
F
wind
direction
speed
MPH
gust
MPH
rain 1hr
in
rain 24hr
in
rain mn
in
humidity
%
barometer
mb
20180122115510 42 237 1.0 10.0 0.00 1.09 0.01 66 1006.4
20180122115010 42 257 5.0 0.0 0.00 1.09 0.01 65 1006.4
20180122114511 42 293 1.0 0.0 0.00 1.09 0.01 65 1006.4
20180122114011 42 257 3.0 0.0 0.00 1.09 0.01 65 1006.4
20180122113512 42 258 1.0 0.0 0.00 1.09 0.01 64 1006.4
20180122113011 42 247 2.0 9.0 0.00 1.09 0.01 64 1006.4
20180122112511 42 208 3.0 0.0 0.00 1.09 0.01 64 1006.3
20180122112011 43 261 1.0 0.0 0.00 1.09 0.01 63 1006.3
20180122111511 43 296 4.0 0.0 0.01 1.09 0.01 63 1006.3
20180122111012 43 245 4.0 0.0 0.01 1.09 0.01 63 1006.2
20180122110511 43 276 0.0 13.0 0.01 1.09 0.01 63 1006.2
20180122110011 43 253 8.0 0.0 0.01 1.09 0.01 62 1006.2
20180122105511 44 232 3.0 0.0 0.01 1.09 0.01 62 1006.2
20180122105011 44 235 0.0 0.0 0.01 1.09 0.01 61 1006.2
20180122104511 44 305 0.0 0.0 0.01 1.09 0.01 60 1006.2
20180122104010 44 252 5.0 14.0 0.01 1.09 0.01 60 1005.9
20180122103511 44 268 9.0 0.0 0.01 1.09 0.01 59 1005.9
20180122103011 45 259 8.0 0.0 0.01 1.09 0.01 59 1005.9
20180122102511 45 275 4.0 0.0 0.01 1.09 0.01 59 1005.7
20180122102010 45 321 7.0 0.0 0.01 1.09 0.01 59 1005.7
20180122101510 45 256 1.0 10.0 0.00 1.08 0.00 59 1005.7
20180122101011 46 257 1.0 0.0 0.00 1.08 0.00 59 1005.6
20180122100510 46 269 2.0 0.0 0.00 1.08 0.00 59 1005.6
20180122100010 46 268 2.0 0.0 0.00 1.08 0.00 58 1005.6
20180122095511 46 273 5.0 0.0 0.00 1.08 0.00 59 1005.2
20180122095011 47 241 2.0 12.0 0.00 1.08 0.00 59 1005.2
20180122094511 47 260 0.0 0.0 0.00 1.08 0.00 58 1005.2
20180122094012 47 271 1.0 0.0 0.00 1.08 0.00 58 1005.2
20180122093511 48 273 3.0 0.0 0.00 1.08 0.00 57 1005.2
20180122093011 48 292 2.0 0.0 0.00 1.08 0.00 57 1005.2
20180122092511 48 309 2.0 10.0 0.00 1.08 0.00 56 1005.2
20180122092011 48 303 1.0 0.0 0.00 1.08 0.00 56 1005.2
20180122091511 49 273 6.0 0.0 0.00 1.08 0.00 56 1005.2
20180122091010 49 250 0.0 0.0 0.00 1.08 0.00 55 1005.1
20180122090511 49 249 4.0 0.0 0.00 1.08 0.00 55 1005.1
20180122090010 50 284 8.0 14.0 0.00 1.08 0.00 54 1005.1
20180122085510 50 309 3.0 0.0 0.00 1.08 0.00 54 1004.8
20180122085011 50 319 0.0 0.0 0.00 1.08 0.00 53 1004.8
20180122084511 50 289 3.0 0.0 0.00 1.08 0.00 52 1004.8
20180122084011 51 309 1.0 0.0 0.00 1.08 0.00 51 1004.6
20180122083511 51 314 1.0 16.0 0.00 1.08 0.00 50 1004.6
20180122083011 52 257 2.0 0.0 0.00 1.08 0.00 48 1004.6
20180122082511 52 335 2.0 0.0 0.00 1.08 0.00 47 1004.6
20180122082010 53 214 5.0 0.0 0.00 1.08 0.00 45 1004.6
20180122081511 53 318 6.0 0.0 0.00 1.08 0.00 43 1004.6
20180122081011 53 277 3.0 9.0 0.00 1.08 0.00 41 1004.5
20180122080510 53 317 4.0 0.0 0.00 1.08 0.00 41 1004.5
20180122080011 53 261 3.0 0.0 0.00 1.08 0.00 42 1004.5
20180122075510 53 242 5.0 0.0 0.00 1.08 0.00 42 1004.1
20180122075011 53 202 4.0 0.0 0.00 1.08 0.00 42 1004.1
20180122074510 53 224 0.0 0.0 0.00 1.08 0.00 43 1004.1
20180122074011 53 224 0.0 0.0 0.00 1.08 0.00 44 1004.1
20180122073511 53 224 0.0 0.0 0.00 1.08 0.00 43 1004.1
20180122073011 54 224 0.0 0.0 0.00 1.08 0.00 43 1004.1
20180122072511 54 224 0.0 0.0 0.00 1.08 0.00 41 1003.9
20180122072012 54 252 5.0 3.0 0.00 1.08 0.00 41 1003.9
20180122071510 54 234 0.0 0.0 0.00 1.08 0.00 40 1003.9
20180122071011 54 217 0.0 0.0 0.00 1.08 0.00 40 1004.0
20180122070511 54 217 0.0 0.0 0.00 1.08 0.00 40 1004.0
20180122070012 55 217 0.0 0.0 0.00 1.08 0.00 40 1004.0
20180122065512 55 217 0.0 0.0 0.00 1.08 0.00 38 1003.6
20180122065012 55 217 0.0 0.0 0.00 1.08 0.00 38 1003.6
20180122064510 55 220 0.0 0.0 0.00 1.08 0.00 37 1003.6
20180122064011 55 244 3.0 0.0 0.00 1.08 0.00 38 1003.6
20180122063511 55 209 4.0 0.0 0.00 1.08 0.00 38 1003.6
20180122063011 56 248 0.0 3.0 0.00 1.08 0.00 40 1003.6
20180122062512 56 250 0.0 0.0 0.00 1.08 0.00 38 1003.9
20180122062012 56 250 0.0 0.0 0.00 1.08 0.00 38 1003.9
20180122061511 56 248 0.0 0.0 0.00 1.08 0.00 38 1003.9
20180122061011 57 248 0.0 0.0 0.00 1.08 0.00 37 1003.9
20180122060510 57 240 0.0 7.0 0.00 1.08 0.00 39 1003.9
20180122060010 57 238 0.0 0.0 0.00 1.08 0.00 39 1003.9
20180122055511 57 255 0.0 0.0 0.00 1.08 1.08 38 1003.9
20180122055011 58 246 0.0 0.0 0.00 1.08 1.08 39 1003.9
20180122054511 58 253 0.0 0.0 0.00 1.08 1.08 39 1003.9
20180122054012 58 253 0.0 6.0 0.00 1.08 1.08 41 1003.9
20180122053511 58 252 0.0 0.0 0.00 1.08 1.08 43 1003.9
20180122053012 58 259 0.0 0.0 0.00 1.08 1.08 46 1003.9
20180122052511 58 254 0.0 0.0 0.00 1.08 1.08 47 1003.7
20180122052011 58 260 0.0 0.0 0.00 1.08 1.08 48 1003.7
20180122051511 59 258 0.0 10.0 0.00 1.08 1.08 52 1003.7
20180122051011 58 255 0.0 0.0 0.00 1.08 1.08 57 1003.7
20180122050511 59 276 0.0 0.0 0.00 1.08 1.08 70 1003.7
20180122050011 59 245 0.0 0.0 0.00 1.08 1.08 73 1003.7
20180122045511 59 246 0.0 0.0 0.00 1.08 1.08 74 1003.5
20180122045010 60 246 0.0 4.0 0.00 1.08 1.08 73 1003.5
20180122044511 60 257 0.0 0.0 0.00 1.08 1.08 73 1003.5
20180122044010 60 262 3.0 0.0 0.00 1.08 1.08 74 1003.5
20180122043511 60 216 0.0 0.0 0.00 1.08 1.08 73 1003.5
20180122043011 60 269 0.0 0.0 0.00 1.08 1.08 73 1003.5
20180122042531 0 0.0 0.0 0.00 1.08 0.00
20180122042511 61 285 3.0 0.0 0.00 1.08 1.08
20180121224511 65 232 14.0 0.0 0.14 0.58 0.58 87 1005.1
20180121224011 65 174 0.0 0.0 0.19 0.53 0.53 86 1004.0
20180121223511 65 171 4.0 7.0 0.20 0.45 0.45 84 1004.0
20180121223011 65 197 0.0 0.0 0.29 0.44 0.44 84 1004.0
20180121222511 65 182 0.0 0.0 0.44 0.44 0.44 84 1004.0
20180121222011 65 174 4.0 0.0 0.44 0.44 0.44 84 1004.0
20180121221511 65 170 0.0 0.0 0.44 0.44 0.44 84 1004.0
20180121221011 65 175 2.0 8.0 0.44 0.44 0.44 84 1004.0
20180121220511 65 207 3.0 0.0 0.44 0.44 0.44 84 1004.0
20180121220011 65 181 4.0 0.0 0.44 0.44 0.44 85 1004.0
20180121215512 64 159 3.0 0.0 0.44 0.44 0.44 86 1004.2
20180121215011 64 213 14.0 0.0 0.44 0.44 0.44 87 1004.2
20180121214511 63 192 8.0 12.0 0.44 0.44 0.44 88 1004.2
20180121214011 64 157 0.0 0.0 0.34 0.34 0.34 84 1004.9
20180121213511 65 194 7.0 0.0 0.25 0.25 0.25 79 1004.9
20180121213011 68 138 6.0 0.0 0.15 0.15 0.15 74 1004.9
20180121212510 71 174 4.0 0.0 0.00 0.00 0.00 67 1004.4
20180121212011 71 122 8.0 14.0 0.00 0.00 0.00 66 1004.4
20180121211511 71 171 10.0 0.0 0.00 0.00 0.00 66 1004.4
20180121211011 71 191 9.0 0.0 0.00 0.00 0.00 67 1004.7
20180121210511 71 190 11.0 0.0 0.00 0.00 0.00 67 1004.7
20180121210011 71 175 6.0 0.0 0.00 0.00 0.00 67 1004.7
20180121205511 71 181 7.0 15.0 0.00 0.00 0.00 67 1004.7
20180121205011 71 169 6.0 0.0 0.00 0.00 0.00 65 1004.7
20180121204511 72 203 7.0 0.0 0.00 0.00 0.00 64 1004.7
20180121204012 72 178 10.0 0.0 0.00 0.00 0.00 63 1005.0
20180121203511 72 193 3.0 0.0 0.00 0.00 0.00 63 1005.0
20180121203011 72 167 6.0 13.0 0.00 0.00 0.00 63 1005.0
20180121202511 72 161 1.0 0.0 0.00 0.00 0.00 63 1005.5
20180121202011 72 174 6.0 0.0 0.00 0.00 0.00 63 1005.5
20180121201511 72 184 5.0 0.0 0.00 0.00 0.00 63 1005.5
20180121201011 72 203 4.0 0.0 0.00 0.00 0.00 62 1005.6
20180121200510 72 164 3.0 16.0 0.00 0.00 0.00 62 1005.6
20180121200012 72 145 8.0 0.0 0.00 0.00 0.00 62 1005.6
20180121195511 72 152 3.0 0.0 0.00 0.00 0.00 62 1006.1
20180121195012 72 172 13.0 0.0 0.00 0.00 0.00 62 1006.1
20180121194512 72 170 2.0 0.0 0.00 0.00 0.00 62 1006.1
20180121194011 73 183 11.0 17.0 0.00 0.00 0.00 61 1006.6
20180121193510 73 211 4.0 0.0 0.00 0.00 0.00 60 1006.6
20180121193010 73 180 11.0 0.0 0.00 0.00 0.00 61 1006.6
20180121192511 73 167 7.0 0.0 0.00 0.00 0.00 61 1006.7
20180121192012 73 186 2.0 0.0 0.00 0.00 0.00 61 1006.7
20180121191511 73 169 11.0 20.0 0.00 0.00 0.00 61 1006.7
20180121191011 73 182 5.0 0.0 0.00 0.00 0.00 61 1007.4
20180121190512 0 0.0 0.0 0.00 0.00 0.00
20180121190011 72 160 5.0 0.0 0.00 0.00 0.00 63 1007.4
20180121185512 72 219 8.0 0.0 0.00 0.00 0.00 63 1007.7
20180121185011 72 182 9.0 13.0 0.00 0.00 0.00 62 1007.7
20180121184511 71 204 8.0 0.0 0.00 0.00 0.00 62 1007.7
20180121184011 71 182 4.0 0.0 0.00 0.00 0.00 62 1007.9
20180121183511 72 191 5.0 0.0 0.00 0.00 0.00 62 1007.9
20180121183012 72 144 2.0 0.0 0.00 0.00 0.00 62 1007.9
20180121182511 72 146 10.0 14.0 0.00 0.00 0.00 62 1008.2
20180121182011 71 180 6.0 0.0 0.00 0.00 0.00 63 1008.2
20180121181512 71 151 6.0 0.0 0.00 0.00 0.00 62 1008.2
20180121181012 71 180 0.0 0.0 0.00 0.00 0.00 62 1008.5
20180121180511 71 135 10.0 0.0 0.00 0.00 0.00 62 1008.5
20180121180011 71 171 17.0 20.0 0.00 0.00 0.00 63 1008.5
20180121175511 70 184 7.0 0.0 0.00 0.00 0.00 64 1008.9
20180121175011 70 181 1.0 0.0 0.00 0.00 0.00 65 1008.9
20180121174511 70 161 4.0 0.0 0.00 0.00 0.00 65 1008.9
20180121174012 70 132 1.0 0.0 0.00 0.00 0.00 66 1009.3
20180121173512 70 171 6.0 22.0 0.00 0.00 0.00 66 1009.3
20180121173012 70 225 5.0 0.0 0.00 0.00 0.00 65 1009.3
20180121172512 70 186 4.0 0.0 0.00 0.00 0.00 65 1009.7
20180121172011 70 213 7.0 0.0 0.00 0.00 0.00 65 1009.7
20180121171510 70 192 6.0 0.0 0.00 0.00 0.00 65 1009.7
20180121171011 69 202 5.0 21.0 0.00 0.00 0.00 66 1010.0
20180121170512 69 204 10.0 0.0 0.00 0.00 0.00 67 1010.0
20180121170011 68 144 5.0 0.0 0.00 0.00 0.00 68 1010.0
20180121165511 68 61 5.0 0.0 0.00 0.00 0.00 68 1010.3
20180121165012 68 201 8.0 0.0 0.00 0.00 0.00 68 1010.3
20180121164511 68 157 7.0 16.0 0.00 0.00 0.00 68 1010.3
20180121164012 68 200 7.0 0.0 0.00 0.00 0.00 68 1010.3
20180121163511 68 215 12.0 0.0 0.00 0.00 0.00 68 1010.3
20180121163011 69 172 9.0 0.0 0.00 0.00 0.00 69 1010.3
20180121162511 69 184 2.0 0.0 0.00 0.00 0.00 68 1010.4